Location: Blairvadach
(56.2780°N, 6.9720°W)
Time: 11:52:12
(UTC+01:00)

OTV 5 (USA 277) - Pass Details

Date: 26 April 2019
Orbit: 310 x 325 km, 54.5° (Epoch: 08 May)

Event Time Altitude Azimuth Distance (km) Brightness Sun altitude
Rises 22:37:20 0° 241° (WSW) 2,034 ? -11.8°
Reaches altitude 10° 22:39:21 10° 234° (SW) 1,206 ? -12.0°
Maximum altitude 22:41:52 39° 163° (SSE) 490 ? -12.2°
Enters shadow 22:43:08 23° 107° (ESE) 735 ? -12.3°
